Terug naar catalogus

PEGASUS DEB

ActiefPO
NORAD 24007·DEBRIS·🇺🇸 United States

Gelanceerd May 19, 1994 vanaf Vandenberg Space Force Base

Loading…

Volgende Passages (komende 24 uur)

TLE

VersSource: Space-Track

Epoch: Sep 14, 2026, 05:57 UTC

1 24007U 94029BC  26257.24829023  .00001855  00000-0  12833-3 0  9998
2 24007  81.9223 173.6303 0059942 294.2238 225.3902 15.03691990638274

Volg PEGASUS DEB in realtime met AllMySat

Download on the App Store